Location: Newark
(21.1200°N, 73.4000°E)
Time: 21:24:15
(UTC+00:00)

Transit 2A - Visible Passes

Search period start: 17 January 2020 00:00
Search period end: 27 January 2020 00:00
Orbit: 601 x 957 km, 66.7° (Epoch: 17 January)

Date Brightness Start Highest point End Pass type
(mag) Time Alt. Az. Time Alt. Az. Time Alt. Az.
20 Jan 8.4 01:04:09 10° NNE 01:07:50 20° ENE 01:11:44 10° ESE visible
20 Jan 8.6 15:33:21 10° SW 15:33:33 11° SW 15:33:33 11° SW visible
21 Jan 8.7 00:31:36 10° NE 00:33:37 12° ENE 00:35:42 10° E visible
21 Jan 7.4 14:59:07 10° SSW 15:01:14 26° SSW 15:01:14 26° SSW visible
22 Jan 6.2 14:25:12 10° S 14:28:57 43° SE 14:28:57 43° SE visible
23 Jan 6.7 01:03:34 10° NNW 01:08:36 57° ENE 01:14:09 10° SE visible
23 Jan 6.5 13:51:41 10° SSE 13:55:43 28° ESE 13:56:41 26° E visible
23 Jan 8.5 15:35:55 10° W 15:37:15 14° W 15:37:15 14° W visible
24 Jan 7.6 00:29:49 10° N 00:34:29 35° ENE 00:39:34 10° SE visible
24 Jan 7.3 13:18:44 10° SSE 13:21:40 16° ESE 13:24:27 10° ENE visible
24 Jan 7.4 15:00:38 10° WSW 15:04:31 26° WNW 15:05:00 26° NW visible
24 Jan 8.2 23:56:22 10° NNE 00:00:20 22° ENE 00:04:35 10° ESE visible
25 Jan 6.5 14:25:56 10° SW 14:30:24 45° WNW 14:32:45 23° N visible
25 Jan 8.6 23:23:31 10° NNE 23:26:08 14° ENE 23:28:53 10° E visible
26 Jan 6.4 01:04:16 10° NW 01:09:17 49° WSW 01:14:49 10° S visible
26 Jan 5.6 13:51:38 10° SSW 13:56:18 82° WNW 14:00:29 11° NNE visible
